www.pogodaiklimat.ru
ПОГОДА в Накхонпханом Агромете
Время
(UTC), дата
12 28.06
15 28.06
18 28.06
21 28.06
00 29.06
03 29.06
06 29.06
09 29.06
12 29.06
15 29.06
18 29.06
21 29.06
00 30.06
03 30.06
06 30.06
09 30.06
12 30.06
15 30.06
18 30.06
21 30.06
00 1.07
03 1.07
06 1.07
09 1.07
12 1.07
15 1.07
18 1.07
21 1.07
00 2.07
03 2.07
06 2.07
09 2.07
12 2.07
15 2.07
18 2.07
21 2.07
00 3.07
03 3.07
06 3.07
09 3.07
12 3.07
15 3.07
18 3.07
21 3.07
00 4.07
03 4.07
06 4.07
09 4.07
12 4.07
15 4.07
18 4.07
21 4.07
00 5.07
03 5.07
06 5.07
09 5.07
Ветер
(напр.,м/с)
Видим. Явления Облачность Т
(С)
Тd
(С)
f
(%)
Тe
(С)
Тes
(С)
Комфортность P
(гПа)
Po
(гПа)
Тmin
(С)
Tmax
(С)
R
(мм)
R24
(мм)
S
(см)
штиль 0 12 км зарница 4/1 600 м
[Cb cap Ac trans Cs]
+31.0 +26.1 75 +46 +46 опасность
перегрева
1004.0 986.9 +34.9
штиль 0 10 км 8/3 600 м
[Cu Sc Ac trans Cs]
+28.5 +25.7 85 +42 +42 опасность
перегрева
1006.4 989.1
СЗ 5 10 км {гроза} 9/3 600 м
[Sc Ac trans Cs]
+27.5 +24.6 84 +39 +39 очень
душно
1006.9 989.5 0.0 0.0
штиль 0 10 км 8/3 600 м
[Sc Ac trans Cs]
+26.7 +25.0 90 +38 +38 очень
душно
1006.2 988.8
штиль 0 10 км 8/3 600 м
[Sc Ac trans Cs]
+27.0 +25.6 92 +40 +41 очень
душно
1007.2 989.8 +25.0 1.7
В 2 12 км 8/5 600 м
[Sc Ac trans Ci fib]
+30.5 +25.1 73 +44 +50 опасность
перегрева
1007.3 990.1
В 2 12 км 5/3 600 м
[Sc Ac trans Ci fib]
+33.2 +24.7 61 +46 +59 опасность
перегрева
1005.7 988.7 1.7
ЮВ 2 12 км 5/3 600 м
[Sc Ac trans Ci fib]
+34.4 +24.2 55 +46 +50 опасность
перегрева
1003.0 986.0
штиль 0 10 км 4/3 600 м
[Cu hum Ci fib]
+31.1 +26.8 78 +48 +48 опасность
перегрева
1004.1 987.0 +34.6 1.7
штиль 0 10 км зарница 9/6 300 м
[Cb cap Ac trans Cs]
+27.9 +24.9 84 +40 +40 очень
душно
1007.0 989.6
штиль 0 9000 м слаб. ливневой дождь, в посл. час гроза 10/6 600 м
[Sc Ac As]
+27.4 +26.3 94 +42 +42 опасность
перегрева
1005.8 988.4 0.5 0.5
В 2 10 км {дождь} 10/6 600 м
[Sc Ac As Cs]
+26.6 +24.9 90 +38 +38 очень
душно
1005.9 988.5 0.8
штиль 0 12 км {дождь} 10/8 600 м
[Frnb Ac As]
+26.9 +24.7 88 +38 +38 очень
душно
1007.2 989.8 +25.0 1 1.3
штиль 0 12 км 10/8 600 м
[Frnb As op]
+27.8 +24.9 84 +40 +41 очень
душно
1007.6 990.3
З 2 12 км 8/4 600 м
[Sc Ac trans Cs]
+30.5 +24.7 71 +43 +51 опасность
перегрева
1005.7 988.6 1.3
СЗ 4 2000 м гроза, ливневой дождь 10/8 300 м
[Cb cap Ac As]
+31.0 +27.1 80 +49 +49 опасность
перегрева
1003.5 986.4 0.8
штиль 0 10 км {гроза} 9/5 600 м
[Sc Ac trans Cs]
+26.8 +25.9 95 +40 +40 очень
душно
1003.8 986.5 +32.5 15 17.5
штиль 0 10 км 4/0
[Ac trans Ci fib]
+25.0 +23.8 93 +34 +34 очень
душно
1006.4 988.9
штиль 0 10 км 6/3 600 м
[Sc Ac trans Ci fib]
+24.9 +23.6 92 +34 +34 очень
душно
1006.2 988.7 17.0
штиль 0 10 км в посл. час дождь 10/6 600 м
[Sc Ac As Cs]
+24.6 +23.9 96 +34 +34 очень
душно
1005.5 988.0 0.2
штиль 0 12 км {дождь} 9/8 600 м
[Sc Ac As Cs]
+25.6 +24.7 95 +36 +37 очень
душно
1006.6 989.1 +23.6 16 16.4
В 2 12 км 10/8 600 м
[Sc Ac As]
+28.8 +24.6 78 +41 +42 опасность
перегрева
1006.8 989.5
штиль 0 11 км слаб. дождь 9/6 600 м
[Sc Ac trans Cs]
+30.1 +25.3 76 +44 +51 опасность
перегрева
1005.0 987.8 0.3 16.7
штиль 0 12 км {дождь} 8/3 600 м
[Sc Ac trans Cs]
+29.4 +25.7 81 +44 +48 опасность
перегрева
1001.5 984.4 0.1
З 2 8000 м гроза, ливневой дождь 10/6 600 м
[Sc Ac As Cs]
+26.2 +25.6 97 +39 +39 очень
душно
1004.7 987.3 +31.0 8 8.9
штиль 0 10 км {дождь} 10/6 600 м
[Sc Ac As Cs]
+25.2 +24.6 96 +35 +35 очень
душно
1005.9 988.4 2
штиль 0 10 км {дождь} 8/4 600 м
[Sc Ac As Cs]
+25.1 +24.4 96 +35 +35 очень
душно
1004.5 987.0 11 10.7
штиль 0 10 км 10/8 600 м
[Frnb Ac As]
+25.0 +24.4 96 +35 +35 очень
душно
1004.2 986.8
штиль 0 12 км 10/8 600 м
[Frnb Ac As]
+25.5 +24.8 96 +36 +36 очень
душно
1005.4 988.0 +23.4 10.5
штиль 0 12 км 10/8 600 м
[Sc Ac As Cs]
+28.2 +24.8 82 +40 +43 очень
душно
1006.0 988.7
ЮВ 2 12 км 10/6 600 м
[Sc Ac As Cs]
+28.5 +24.9 81 +41 +45 опасность
перегрева
1004.6 987.4 11.2
штиль 0 12 км 9/6 600 м
[Sc Ac trans Cs]
+30.1 +25.1 75 +44 +46 опасность
перегрева
1002.4 985.3
штиль 0 4000 м гроза, ливневой дождь 10/8 300 м
[Cb cap Ac As]
+27.6 +26.0 91 +41 +41 опасность
перегрева
1008.1 990.7 +30.5 1 4.0
штиль 0 10 км слаб. дождь {гроза} 10/8 600 м
[Frnb Ac As]
+25.8 +24.6 93 +36 +36 очень
душно
1006.2 988.8 21
штиль 0 2000 м слаб. дождь {гроза} 10/8 600 м
[Frnb Ac As]
+24.4 +24.0 98 +34 +34 очень
душно
1005.8 988.3 19 41.5
штиль 0 6000 м слаб. дождь 10/8 600 м
[Frnb Ac As]
+24.3 +23.9 98 +33 +33 очень
душно
1005.4 987.8 15
штиль 0 12 км {дождь} 10/8 600 м
[Frnb Ac As]
+25.2 +24.6 96 +35 +35 очень
душно
1006.3 988.8 +22.8 3 58.2
штиль 0 12 км 10/6 600 м
[Sc Ac As Cs]
+27.2 +24.8 87 +39 +43 очень
душно
1007.8 990.4
СЗ 5 9000 м слаб. дождь 10/6 600 м
[Sc Ac As]
+27.0 +25.3 90 +39 +40 очень
душно
1006.9 989.5 9 67.1
штиль 0 12 км {дождь} 9/5 600 м
[Sc Ac trans Cs]
+27.8 +25.5 87 +41 +44 опасность
перегрева
1005.5 988.2 12
штиль 0 10 км в посл. час дождь 9/6 600 м
[Sc Ac trans Cs]
+27.2 +25.5 90 +40 +40 очень
душно
1006.2 988.9 +28.6 2 79.0
штиль 0 10 км 10/6 600 м
[Sc Ac As Cs]
+25.6 +24.4 93 +36 +36 очень
душно
1008.7 991.1
штиль 0 7000 м слаб. дождь {гроза} 10/8 600 м
[Frnb Ac As]
+25.0 +24.7 98 +35 +35 очень
душно
1008.4 990.9 33 72.5
штиль 0 10 км в посл. час дождь 9/6 600 м
[Sc Ac trans Cs]
+24.6 +24.3 98 +34 +34 очень
душно
1007.5 990.0 4
штиль 0 12 км {дождь} 8/4 600 м
[Sc Ac trans Cs]
+26.0 +25.1 95 +37 +39 очень
душно
1008.6 991.1 +23.1 59 58.5
штиль 0 9000 м слаб. дождь 10/5 600 м
[Sc Ac As Cs]
+27.0 +24.8 88 +39 +44 очень
душно
1009.3 991.8 0.0
ЮЗ 2 12 км {дождь} 8/4 600 м
[Sc Ac trans Cs]
+29.5 +25.2 78 +43 +51 опасность
перегрева
1007.7 990.4 0.2 49.8
З 2 12 км 6/3 600 м
[Sc Ac trans Cs]
+30.5 +24.8 72 +44 +47 опасность
перегрева
1005.2 988.0
штиль 0 12 км зарница 4/1 600 м
[Cb cap Ac trans Cs]
+29.2 +24.9 78 +42 +42 опасность
перегрева
1006.1 988.9 +30.5 36.7
штиль 0 10 км 9/3 600 м
[Sc Ac trans Cs]
+27.0 +24.8 88 +39 +39 очень
душно
1008.9 991.5
штиль 0 10 км 6/3 600 м
[Sc Ac trans Cs]
+26.5 +24.3 88 +37 +37 очень
душно
1008.0 990.6 3.9
штиль 0 10 км 8/3 600 м
[Sc Ac trans Cs]
+25.0 +23.8 93 +34 +34 очень
душно
1007.2 989.7
штиль 0 10 км 10/3 600 м
[Sc Ac trans Cs]
+26.2 +25.2 94 +38 +39 очень
душно
1008.2 990.7 +24.4 0.2
штиль 0 12 км 8/5 600 м
[Sc Ac trans Cs]
+29.0 +25.5 81 +43 +51 опасность
перегрева
1008.3 991.0
ЮВ 2 12 км 8/4 600 м
[Cu Sc Ac trans Cs]
+31.5 +25.1 69 +45 +54 опасность
перегрева
1006.1 989.0
штиль 0 12 км 6/3 600 м
[Cu Sc Ac trans Cs]
+32.0 +25.2 67 +46 +51 опасность
перегрева
1003.8 986.8
Местоположение метеостанции Накхонпханом Агромет (Таиланд): широта 17.43 долгота 104.78 высота над уровнем моря 153 м.
В архиве по умолчанию представлена погода в Накхонпханом Агромете за последнюю неделю. Архивные данные за месяц целиком и за предыдущие месяцы, начиная с января 2011 года, Вы можете получить, выбрав интересующий диапазон дат из раскрывающегося списка и нажав кнопку "Найти!".
*Определитесь, кто Вы:
Внимание! Время в таблицах - всемирное. Для получения местного времени необходимо прибавить поправку, которая равна 7 ч.
Смотрите также архив погоды в соседних городах и на ближайших метеорологических станциях:
Партнеры нашего сайта:      
Пояснения к столбцам:
  • Ветер - указаны скорость ветра в м/с - средняя за 10 мин, порывы в срок и между сроками (в фигурных скобках) и направление, откуда дует ветер: С - северный,
  • СВ - северо-восточный, В - восточный, ЮВ - юго-восточный, Ю - южный, ЮЗ - юго-западный, З - западный, СЗ - северо-западный.
  • Видимость - горизонтальная дальность видимости в метрах или километрах. При видимости от 1 до 10 км при отсутствии осадков обычно наблюдается дымка, при ухудшении видимости до 1 км и менее - туман. В сухую погоду видимость может ухудшаться дымом, пылью или мглою.
  • Явления - указаны атмосферные явления, наблюдавшиеся в срок или в последний час перед сроком; фигурными скобками обозначены явления, наблюдавшиеся между сроками (за 1-3 часа до срока); квадратными скобками обозначены град или гололедные отложения с указанием их диаметра в мм.
  • Облачность - указаны через наклонную черту общая и нижняя облачность в баллах и высота нижней границы облаков в метрах; квадратными скобками обозначены формы облаков: Ci - перистые, Cs - перисто-слоистые, Cc - перисто-кучевые, Ac - высококучевые, As - высокослоистые, Sc - слоисто-кучевые, Ns - слоисто-дождевые, Cu - кучевые, Cb - кучево-дождевые. Подробнее классификацию облаков см. в Атласе облаков (PDF).
  • T - Температура воздуха - температура, измеренная на высоте 2 м над землей.
  • Td - Температура точки росы - температура, при понижении до которой содержащийся в воздухе водяной пар достигнет насыщения.
  • f - Относительная влажность воздуха - влажноcть воздуха, измеренная на высоте 2 м над землей.
  • Te - Эффективная температура - температура, которую ощущает одетый по сезону человек в тени. Характеристика душности погоды. При расчете учитывается влияние влажности воздуха и скорости ветра на теплоощущения человека.
  • Tes - Эффективная температура на солнце - температура, которую ощущает человек, с поправкой на солнечный нагрев. Характеристика знойности погоды. Зависит от высоты солнца над горизонтом, облачности и скорости ветра. Ночью, в пасмурную погоду, а также при ветре 12 м/с и более поправка равна нулю.
  • P - Атмосферное давление - приведенное к уровню моря атмосферное давление.
  • Po - Атмосферное давление - измеренное на уровне метеостанции атмосферное давление.
  • Tmin - Минимальная температура - минимум температуры воздуха на высоте 2 м над землей.
  • Tmax - Максимальная температура - максимум температуры воздуха на высоте 2 м над землей.
  • R - Количество осадков - Количество выпавших осадков за период времени, мм. При наведении курсора мыши на число - период времени, за который выпало указанное количество осадков.
  • R24 - Количество осадков - Количество выпавших осадков за 24 часа, мм.
  • S - Снежный покров - Высота снежного покрова, см. При наведении курсора мыши на число - состояние снежного покрова и степень покрытия местности в баллах.